{"data":{"norad_id":60237,"epoch":"2026-09-19T09:05:15.347904Z","epoch_age_seconds":115071,"freshness":"FRESH","line1":"1 60237U 24128C   26262.37864986  .00002199  00000+0  15861-3 0  9998","line2":"2 60237  61.9884 245.6471 0026821 155.3628 204.8753 15.07194513120462","mean_motion":15.07194513,"eccentricity":0.0026821,"inclination_deg":61.9884,"raan_deg":245.6471,"arg_perigee_deg":155.3628,"mean_anomaly_deg":204.8753,"bstar":0.00015861,"rev_number":12046,"period_min":95.541749096057,"perigee_km":526.20961064486,"apogee_km":563.34550892646,"semimajor_km":6922.9145597857,"source":"CELESTRAK","updated_at":"2026-09-20T09:00:48.039090Z"}}